Total_Precipitation_Accumulation
0.58 0.74 0.84 0.79 0.80 0.86 0.77 0.72 0.69 0.56 0.44 0.46 0.45 0.44 0.45 0.41 0.37 0.39 0.41 0.40 0.44 0.37 0.32 0.25 0.22 0.22 0.30 0.34 0.36 0.39 0.42 0.42 0.40 0.36 0.41 0.47 0.49 0.58 0.66 0.73 0.78 0.82 0.84 0.92
0.58 0.60 0.54 0.56 0.63 0.75 0.77 0.78 0.74 0.66 0.48 0.45 0.45 0.47 0.43 0.40 0.37 0.31 0.29 0.28 0.33 0.32 0.29 0.24 0.22 0.19 0.19 0.22 0.27 0.34 0.35 0.32 0.29 0.26 0.31 0.40 0.47 0.55 0.71 0.87 1.05 1.03 0.98 1.02
0.55 0.50 0.43 0.46 0.54 0.68 0.70 0.66 0.60 0.67 0.59 0.54 0.58 0.62 0.51 0.44 0.41 0.33 0.25 0.26 0.30 0.28 0.25 0.24 0.23 0.22 0.18 0.19 0.23 0.27 0.30 0.30 0.28 0.33 0.52 0.79 1.04 1.14 1.19 1.22 1.42 1.45 1.37 1.32
0.70 0.48 0.39 0.42 0.47 0.54 0.74 0.54 0.47 0.58 0.72 0.69 0.58 0.66 0.46 0.42 0.48 0.38 0.30 0.26 0.28 0.29 0.26 0.23 0.21 0.22 0.16 0.19 0.23 0.26 0.29 0.36 0.37 0.51 0.82 1.21 1.54 1.64 1.64 1.75 1.80 1.87 1.78 1.62
0.57 0.40 0.39 0.43 0.39 0.47 0.72 0.58 0.58 0.62 0.66 0.61 0.41 0.44 0.37 0.35 0.47 0.40 0.37 0.34 0.35 0.32 0.28 0.24 0.23 0.22 0.22 0.25 0.30 0.34 0.41 0.55 0.71 0.85 1.01 1.31 1.48 1.57 1.71 1.86 2.07 2.22 2.28 2.19
0.42 0.33 0.35 0.37 0.35 0.40 0.53 0.64 0.75 0.75 0.72 0.68 0.34 0.31 0.35 0.34 0.34 0.35 0.36 0.38 0.37 0.32 0.26 0.26 0.28 0.30 0.33 0.40 0.45 0.49 0.61 0.72 0.80 0.90 1.03 1.18 1.24 1.38 1.59 1.76 1.98 2.13 2.21 2.18
0.42 0.38 0.31 0.30 0.43 0.47 0.50 0.72 1.02 1.10 1.01 0.70 0.28 0.27 0.33 0.26 0.23 0.26 0.28 0.27 0.28 0.28 0.28 0.28 0.28 0.35 0.40 0.48 0.54 0.62 0.70 0.81 0.87 0.93 1.03 1.09 1.13 1.25 1.41 1.48 1.55 1.58 1.57 1.58
0.41 0.42 0.29 0.25 0.31 0.40 0.43 0.52 0.85 1.03 0.82 0.56 0.30 0.38 0.36 0.22 0.18 0.15 0.16 0.20 0.26 0.33 0.35 0.34 0.32 0.41 0.49 0.58 0.70 0.78 0.85 0.88 0.92 1.01 1.08 1.07 1.15 1.26 1.35 1.29 1.24 1.28 1.31 1.36
0.35 0.33 0.20 0.20 0.22 0.26 0.40 0.42 0.47 0.59 0.47 0.47 0.36 0.33 0.26 0.15 0.14 0.13 0.17 0.25 0.34 0.44 0.45 0.46 0.46 0.52 0.58 0.68 0.78 0.85 0.93 0.97 1.03 1.06 1.13 1.27 1.30 1.29 1.26 1.14 1.07 1.10 1.05 1.04
0.26 0.32 0.25 0.22 0.25 0.27 0.32 0.41 0.50 0.58 0.64 0.60 0.40 0.35 0.30 0.20 0.20 0.22 0.28 0.37 0.49 0.60 0.63 0.64 0.68 0.71 0.74 0.77 0.84 0.90 0.99 1.10 1.09 1.08 1.19 1.37 1.34 1.09 0.91 0.81 0.84 0.88 0.91 0.93
0.19 0.30 0.32 0.27 0.25 0.28 0.32 0.32 0.40 0.50 0.50 0.69 0.81 0.78 0.63 0.57 0.46 0.51 0.54 0.62 0.79 0.83 0.84 0.82 0.85 0.88 0.85 0.85 0.91 0.93 0.99 1.15 1.17 1.07 1.16 1.20 1.02 0.77 0.65 0.62 0.59 0.57 0.58 0.63
0.16 0.27 0.31 0.24 0.17 0.17 0.25 0.26 0.28 0.48 0.51 0.55 0.88 0.93 0.79 0.81 0.78 0.88 0.97 1.12 1.06 1.02 1.02 0.93 0.87 0.86 0.77 0.75 0.83 0.89 1.00 1.09 1.03 0.98 0.94 0.78 0.62 0.52 0.47 0.42 0.37 0.34 0.34 0.35
0.20 0.28 0.39 0.37 0.31 0.21 0.20 0.18 0.18 0.27 0.45 0.56 0.89 0.95 0.72 0.79 0.90 1.07 1.18 1.19 0.99 0.84 0.75 0.70 0.68 0.61 0.57 0.59 0.65 0.69 0.80 0.88 0.71 0.62 0.62 0.54 0.45 0.41 0.37 0.31 0.30 0.28 0.29 0.29
0.23 0.26 0.34 0.39 0.32 0.20 0.17 0.15 0.15 0.24 0.43 0.48 0.62 0.68 0.61 0.72 0.88 1.00 1.03 0.91 0.68 0.54 0.49 0.46 0.38 0.35 0.39 0.42 0.42 0.39 0.42 0.52 0.46 0.40 0.42 0.41 0.35 0.33 0.32 0.32 0.34 0.29 0.28 0.28
0.24 0.24 0.19 0.18 0.13 0.12 0.12 0.12 0.14 0.18 0.25 0.40 0.47 0.47 0.48 0.50 0.54 0.56 0.60 0.57 0.46 0.37 0.30 0.28 0.27 0.26 0.29 0.30 0.30 0.28 0.26 0.28 0.30 0.30 0.30 0.36 0.36 0.33 0.29 0.30 0.29 0.28 0.27 0.24
0.25 0.23 0.15 0.13 0.10 0.09 0.08 0.08 0.11 0.14 0.19 0.27 0.28 0.29 0.26 0.22 0.19 0.18 0.22 0.26 0.25 0.21 0.19 0.20 0.20 0.21 0.24 0.24 0.22 0.22 0.21 0.21 0.21 0.21 0.21 0.27 0.32 0.30 0.30 0.28 0.26 0.25 0.25 0.23
0.28 0.27 0.23 0.15 0.09 0.12 0.11 0.06 0.09 0.13 0.13 0.16 0.20 0.23 0.23 0.17 0.11 0.10 0.10 0.11 0.12 0.14 0.16 0.15 0.16 0.21 0.25 0.24 0.25 0.24 0.22 0.20 0.19 0.20 0.22 0.27 0.28 0.24 0.22 0.21 0.19 0.17 0.19 0.19
0.22 0.27 0.33 0.25 0.21 0.22 0.11 0.05 0.05 0.07 0.07 0.11 0.14 0.14 0.16 0.13 0.11 0.09 0.08 0.09 0.10 0.11 0.12 0.14 0.15 0.17 0.24 0.26 0.28 0.28 0.26 0.23 0.20 0.20 0.21 0.24 0.25 0.24 0.20 0.19 0.17 0.14 0.14 0.17
0.18 0.27 0.40 0.36 0.29 0.15 0.08 0.07 0.06 0.05 0.06 0.08 0.08 0.06 0.05 0.06 0.10 0.08 0.06 0.07 0.08 0.08 0.09 0.11 0.13 0.18 0.22 0.26 0.30 0.31 0.27 0.25 0.23 0.22 0.20 0.21 0.22 0.23 0.22 0.19 0.17 0.15 0.17 0.18
0.23 0.27 0.41 0.40 0.36 0.22 0.11 0.06 0.05 0.06 0.09 0.09 0.08 0.06 0.05 0.06 0.10 0.08 0.06 0.05 0.06 0.07 0.07 0.08 0.10 0.14 0.20 0.27 0.30 0.31 0.32 0.24 0.20 0.20 0.21 0.21 0.20 0.19 0.21 0.19 0.19 0.18 0.20 0.21
0.29 0.34 0.37 0.36 0.33 0.18 0.07 0.05 0.06 0.11 0.12 0.09 0.08 0.07 0.07 0.07 0.07 0.06 0.05 0.04 0.05 0.06 0.07 0.07 0.09 0.11 0.17 0.26 0.29 0.33 0.33 0.23 0.20 0.23 0.26 0.27 0.25 0.23 0.26 0.26 0.24 0.22 0.22 0.25
0.33 0.35 0.33 0.33 0.33 0.20 0.07 0.07 0.11 0.12 0.08 0.06 0.06 0.06 0.07 0.06 0.06 0.05 0.05 0.05 0.06 0.07 0.07 0.07 0.08 0.09 0.12 0.21 0.28 0.31 0.33 0.30 0.27 0.27 0.29 0.31 0.32 0.31 0.31 0.31 0.30 0.29 0.28 0.30
0.32 0.32 0.30 0.25 0.19 0.11 0.08 0.10 0.11 0.09 0.08 0.07 0.07 0.07 0.06 0.06 0.06 0.05 0.05 0.05 0.05 0.06 0.06 0.07 0.08 0.08 0.11 0.18 0.23 0.27 0.31 0.34 0.31 0.31 0.31 0.33 0.35 0.34 0.32 0.31 0.32 0.31 0.28 0.28
0.28 0.24 0.26 0.21 0.12 0.11 0.11 0.10 0.10 0.10 0.08 0.06 0.05 0.06 0.07 0.06 0.07 0.06 0.05 0.04 0.04 0.05 0.05 0.06 0.07 0.08 0.10 0.17 0.23 0.33 0.35 0.32 0.33 0.34 0.35 0.35 0.33 0.32 0.31 0.31 0.30 0.29 0.28 0.27
0.33 0.31 0.28 0.25 0.17 0.15 0.15 0.12 0.10 0.10 0.07 0.05 0.04 0.05 0.06 0.06 0.06 0.07 0.07 0.05 0.05 0.05 0.06 0.07 0.08 0.10 0.12 0.17 0.23 0.31 0.31 0.31 0.33 0.35 0.36 0.35 0.33 0.29 0.29 0.28 0.28 0.28 0.27 0.29
0.30 0.33 0.34 0.31 0.21 0.20 0.18 0.13 0.10 0.09 0.08 0.06 0.05 0.05 0.05 0.06 0.08 0.10 0.09 0.07 0.06 0.06 0.07 0.10 0.11 0.12 0.13 0.16 0.18 0.23 0.26 0.28 0.30 0.32 0.32 0.31 0.33 0.30 0.27 0.26 0.28 0.32 0.35 0.37